Weather History for Hoquiam, WA

Change the Weather History Date:

Thursday, January 16, 2014

  Actual Average Record
Temperature  
Mean Temperature 46 °F 43 °F  
Max Temperature 50 °F 47 °F 55 °F (1981)
Min Temperature 41 °F 38 °F 25 °F (1984)
Degree Days  
Heating Degree Days 19 22  
Month to date heating degree days 337 363  
Cooling Degree Days 0 0  
Month to date cooling degree days 0 0  
Year to date cooling degree days 0 0  
Moisture  
Dew Point 41 °F    
Average Humidity 85    
Maximum Humidity 96    
Minimum Humidity 74    
Precipitation  
Precipitation 0.00 in 0.36 in 2.03 in (1958)
Month to date precipitation 5.08 5.63  
Year to date precipitation 5.08 5.63  
Sea Level Pressure  
Sea Level Pressure 30.39 in    
Wind  
Wind Speed 13 mph (ENE)    
Max Wind Speed 18 mph    
Max Gust Speed 25 mph    
Visibility 6 miles    
Events      
T = Trace of Precipitation, MM = Missing Value Source: NWS Daily Summary

Daily Weather History Graph

Daily Weather History Graph

Search for Another Location

Airport:

Trip Planner

Search our weather history database for the weather conditions in past years. The results will help you decide how hot, cold, wet, or windy it might be!

Date:

Astronomy

Jan. 16, 2014 Rise Set
Actual Time 7:56 AM PST 4:55 PM PST
Civil Twilight 7:22 AM PST 5:29 PM PST
Nautical Twilight 6:44 AM PST 6:07 PM PST
Astronomical Twilight 6:08 AM PST 6:43 PM PST
Moon 5:59 PM PST (1/16) 7:47 AM PST (1/16)
Length of Visible Light 10h 07m
Length of Day
8h 59m
Full, 100% of the Moon is Illuminated
Jan 16
Full
Jan 23
Last Quarter
Jan 30
New
Feb 6
First Quarter
Feb 14
Full

Hourly Weather History & Observations

Time (PST) Temp. Windchill Dew Point Humidity Pressure Visibility Wind Dir Wind Speed Gust Speed Precip Events Conditions
12:53 AM - - - N/A% 30.47 in 8.0 mi ENE 9.2 mph - N/A   Clear
1:53 AM - - - N/A% 30.46 in 7.0 mi ENE 8.1 mph - N/A   Clear
2:53 AM - - - N/A% 30.46 in 7.0 mi ENE 11.5 mph - N/A   Clear
3:53 AM - - - N/A% 30.46 in 7.0 mi NE 11.5 mph - N/A   Clear
4:53 AM - - - N/A% 30.45 in 7.0 mi NE 12.7 mph - N/A   Clear
5:40 AM - - - N/A% 30.43 in 7.0 mi NE 12.7 mph - N/A   Partly Cloudy
5:53 AM - - - N/A% 30.45 in 7.0 mi NE 15.0 mph - N/A   Scattered Clouds
6:37 AM - - - N/A% 30.43 in 7.0 mi NE 10.4 mph - N/A   Mostly Cloudy
6:53 AM - - - N/A% 30.44 in 7.0 mi NE 11.5 mph - N/A   Mostly Cloudy
7:45 AM - - - N/A% 30.42 in 7.0 mi NE 13.8 mph - N/A   Scattered Clouds
7:53 AM - - - N/A% 30.44 in 7.0 mi NE 13.8 mph - N/A   Mostly Cloudy
8:53 AM - - - N/A% 30.45 in 5.0 mi NE 13.8 mph - N/A   Haze
9:53 AM - - - N/A% 30.45 in 6.0 mi ENE 10.4 mph - N/A   Haze
10:35 AM 46.0 °F 40.6 °F 42.1 °F 86% 30.44 in 6.0 mi ENE 11.5 mph - N/A   Scattered Clouds
10:53 AM 46.9 °F - 43.0 °F 86% 30.44 in 6.0 mi ENE 13.8 mph - N/A   Partly Cloudy
11:53 AM 46.9 °F - 43.0 °F 86% 30.41 in 6.0 mi ENE 17.3 mph - N/A   Clear
12:53 PM 46.9 °F - 43.0 °F 86% 30.39 in 5.0 mi East 16.1 mph - N/A   Clear
1:53 PM 50.0 °F - 43.0 °F 77% 30.36 in 7.0 mi East 13.8 mph - N/A   Clear
2:53 PM 48.0 °F - 43.0 °F 83% 30.37 in 5.0 mi East 12.7 mph - N/A   Haze
3:53 PM 46.9 °F - 42.1 °F 83% 30.37 in 5.0 mi ENE 12.7 mph - N/A   Haze
4:53 PM 44.1 °F 38.1 °F 41.0 °F 89% 30.36 in 5.0 mi NE 11.5 mph - N/A   Clear
5:07 PM 44.1 °F 39.0 °F 41.0 °F 89% 30.34 in 5.0 mi ENE 9.2 mph - N/A   Partly Cloudy
5:29 PM 43.0 °F 37.2 °F 41.0 °F 93% 30.33 in 6.0 mi NE 10.4 mph - N/A   Mostly Cloudy
5:53 PM 43.0 °F 36.0 °F 41.0 °F 93% 30.35 in 6.0 mi NE 13.8 mph - N/A   Mostly Cloudy
6:53 PM 42.1 °F 35.2 °F 39.9 °F 92% 30.34 in 7.0 mi NE 12.7 mph - N/A   Mostly Cloudy
7:02 PM 42.1 °F 35.2 °F 39.9 °F 92% 30.32 in 7.0 mi NE 12.7 mph - N/A   Scattered Clouds
7:53 PM 42.1 °F 35.7 °F 39.9 °F 92% 30.32 in 7.0 mi ENE 11.5 mph - N/A   Clear
8:53 PM 42.1 °F 34.9 °F 39.0 °F 89% 30.32 in 7.0 mi NE 13.8 mph - N/A   Clear
9:02 PM 42.1 °F 34.9 °F 39.0 °F 89% 30.31 in 7.0 mi NE 13.8 mph - N/A   Partly Cloudy
9:53 PM 41.0 °F 33.9 °F 39.0 °F 93% 30.31 in 7.0 mi NE 12.7 mph - N/A   Partly Cloudy
10:53 PM 41.0 °F 34.3 °F 39.0 °F 93% 30.31 in 7.0 mi ENE 11.5 mph - N/A   Partly Cloudy
11:53 PM 41.0 °F 33.9 °F 39.0 °F 93% 30.30 in 7.0 mi NE 12.7 mph - N/A   Mostly Cloudy